Location: Staunton
(38.1490°N, 79.0720°W)
Time: 14:26:02
(UTC-04:00)

ISS - Pass Details

Date: 25 May 2017
Orbit: 402 x 408 km, 51.6° (Epoch: 29 May)

Event Time Altitude Azimuth Distance (km) Brightness Sun altitude
Rises 02:53:29 0° 319° (NW) 2,328 0.3 -26.3°
Reaches altitude 10° 02:56:16 10° 345° (NNW) 1,464 -0.4 -26.1°
Maximum altitude 02:58:12 15° 21° (NNE) 1,212 -0.5 -25.9°
Drops below altitude 10° 03:00:09 10° 58° (ENE) 1,459 -0.3 -25.7°
Sets 03:02:54 0° 84° (E) 2,315 0.5 -25.5°
